Weather Roundup
Issued by NWS Chicago, IL

Home | Current Version | Previous Version | Graphics & Text | Print | Product List | Glossary On
Versions: 1 2 3 4 5 6 7 8 9 10 11 12 13 14 15 16 17 18 19 20 21 22 23 24 25 26 27 28 29 30 31 32 33 34 35 36 37 38 39 40 41 42 43 44 45 46 47 48 49 50
000
NZUS59 KLOT 221808
HRRLOT

CHICAGO AREA WEATHER ROUNDUP
NATIONAL WEATHER SERVICE CHICAGO/ROMEOVILLE IL
100 PM CDT FRI MAY 22 2015

NOTE: "FAIR" INDICATES FEW OR NO CLOUDS BELOW 12,000 FEET WITH NO
SIGNIFICANT WEATHER AND/OR OBSTRUCTIONS TO VISIBILITY.

* THESE STATIONS ARE NOT UNDER NWS QUALITY CONTROL. THEY ALSO MAY NOT
  REPORT WEATHER SUCH AS PRECIPITATION OR FOG.

ILZ005-006-012>014-019>023-221900-
NORTHEAST ILLINOIS

CITY           SKY/WX    TMP DP  RH WIND       PRES   REMARKS
OHARE          SUNNY     64  31  28 E9        30.24R
6HR MIN TEMP:  51; 6HR MAX TEMP:  64;

MIDWAY         MOSUNNY   67  32  27 NE9       30.24S
6HR MIN TEMP:  54; 6HR MAX TEMP:  67;

AURORA         SUNNY     71  35  26 VRB6      30.22S
6HR MIN TEMP:  50; 6HR MAX TEMP:  72;

LANSING*       SUNNY     62  41  45 N7        30.24R
JOLIET*        SUNNY     72  43  35 E5        30.22S
WAUKEGAN       SUNNY     56  29  35 NE8       30.26R
6HR MIN TEMP:  48; 6HR MAX TEMP:  57;

DUPAGE AIRPORT SUNNY     68  36  30 NE7       30.22S
6HR MIN TEMP:  50; 6HR MAX TEMP:  69;

WHEELING       SUNNY     60  27  28 NE12      30.27R
6HR MIN TEMP:  50; 6HR MAX TEMP:  61;

KANKAKEE*      SUNNY     72  42  34 NW10      30.22R
MORRIS*        SUNNY     73  38  27 N5        30.20S
LEWIS AIRPORT* SUNNY     69  39  33 E7        30.22S
NORTHERLY IS     N/A     53  37  54 N12         N/A
$$

WIZ051-052-058>065-066-070>072-221900-
SOUTHEAST WISCONSIN

CITY           SKY/WX    TMP DP  RH WIND       PRES   REMARKS
MILWAUKEE      SUNNY     55  32  41 NE8       30.27S
6HR MIN TEMP:  48; 6HR MAX TEMP:  55;

KENOSHA*       SUNNY     59  31  34 E7        30.27R
RACINE*        SUNNY     57  30  35 NE9       30.28S
BURLINGTON     SUNNY     63  32  30 E3        30.24S
WAUKESHA       SUNNY     63  34  34 SE6       30.26R
WEST BEND      SUNNY     63  30  29 CALM      30.25S
$$

INZ001>003-010>013-019-020-221900-
NORTHWEST INDIANA

CITY           SKY/WX    TMP DP  RH WIND       PRES   REMARKS
GARY*          MOSUNNY   57  39  51 N9        30.25S
MICHIGAN CITY* NOT AVBL
RENSSELAER*    NOT AVBL
VALPARAISO     SUNNY     70  36  28 N10       30.23R
$$

LMZ740>746-221900-
SOUTHERN LAKE MICHIGAN

STATION/POSITION TIME  SKY/WX   TEMP WIND        PRES    VSBY
                                AIR  DIR/SP/G
                 (UTC)          (F)  (DEG/KT/KT) (MB)    (MI)
HARRISON CRIB    1700            47  360/ 11/ 13   N/A
BURNHAM HARBOR   1800            54   30/  9/ 12   N/A
CALUMET HARBOR   1700            52  350/  8/ 11   N/A
BURNS HARBOR     1700            49   30/  7/  8 1024.7R
MICHIGAN CITY    1700            50  350/ 13/ 15   N/A
$$

ABBREVIATIONS USED IN REMARKS
   TC - TEMPERATURE IN CELSIUS
  WCI - WIND CHILL INDEX
   HX - HEAT INDEX
  VSB - VISIBILITY
$$


USA.gov is the U.S. government's official web portal to all federal, state and local government web resources and services.